Wendover, UT

9:23 PM MST on November 22, 2017 (GMT -0700)
Wendover

Weather History for KENV - April, 2013

Change the Weather History Date:

Thursday, April 18, 2013

  Actual Average Record
Temperature  
Mean Temperature 48 °F -  
Max Temperature 53 °F 60 °F 85 °F (1946)
Min Temperature 42 °F 41 °F 29 °F (1941)
Degree Days  
Heating Degree Days 16    
Moisture  
Dew Point 10 °F    
Average Humidity 21    
Maximum Humidity 27    
Minimum Humidity 18    
Precipitation  
Precipitation 0.00 in - - ()
Sea Level Pressure  
Sea Level Pressure 30.26 in    
Wind  
Wind Speed 9 mph (SE)    
Max Wind Speed 15 mph    
Max Gust Speed 17 mph    
Visibility 10 miles    
Events      
Averages and records for this station are not official NWS values.
T = Trace of Precipitation, MM = Missing Value Source: NWS Daily Summary

Daily Weather History Graph

Daily Weather History Graph

Search for Another Location

Airport or City:

Trip Planner

Search our weather history database for the weather conditions in past years. The results will help you decide how hot, cold, wet, or windy it might be!

Date:

Astronomy

Apr. 18, 2013 Rise Set
Actual Time 6:52 AM MDT 8:19 PM MDT
Civil Twilight 6:23 AM MDT 8:47 PM MDT
Nautical Twilight 5:49 AM MDT 9:22 PM MDT
Astronomical Twilight 5:13 AM MDT 9:58 PM MDT
Moon 1:07 PM MDT (4/18) 2:36 AM MDT (4/18)
Length of Visible Light 14h 24m
Length of Day
13h 26m
First Quarter, 52% of the Moon is Illuminated
Apr 18
First Quarter
Apr 25
Full
May 2
Last Quarter
May 9
New
May 17
First Quarter

Hourly Weather History & Observations

Time (MDT) Temp. Windchill Dew Point Humidity Pressure Visibility Wind Dir Wind Speed Gust Speed Precip Events Conditions
11:35 AM 44.6 °F 39.7 °F 8.6 °F 23% 30.31 in 10.0 mi NNW 9.2 mph - N/A   Clear
11:55 AM 46.4 °F 42.4 °F 8.6 °F 22% 30.31 in 10.0 mi ESE 8.1 mph - N/A   Clear
12:15 PM 46.4 °F 40.7 °F 10.4 °F 23% 30.31 in 10.0 mi SE 12.7 mph - N/A   Clear
12:55 PM 46.4 °F 41.1 °F 10.4 °F 23% 30.30 in 10.0 mi SE 11.5 mph - N/A   Clear
1:15 PM 48.2 °F - 10.4 °F 22% 30.29 in 10.0 mi SE 12.7 mph 16.1 mph N/A   Clear
1:35 PM 48.2 °F - 10.4 °F 22% 30.29 in 10.0 mi SE 15.0 mph - N/A   Clear
1:55 PM 48.2 °F - 10.4 °F 22% 30.29 in 10.0 mi SSE 10.4 mph - N/A   Clear
2:35 PM 50.0 °F - 12.2 °F 22% 30.28 in 10.0 mi SE 13.8 mph - N/A   Clear
2:55 PM 51.8 °F - 12.2 °F 21% 30.28 in 10.0 mi SSE 11.5 mph - N/A   Clear
3:15 PM 51.8 °F - 10.4 °F 19% 30.27 in 10.0 mi SE 12.7 mph - N/A   Clear
3:35 PM 51.8 °F - 10.4 °F 19% 30.27 in 10.0 mi SE 11.5 mph 17.3 mph N/A   Clear
3:55 PM 51.8 °F - 10.4 °F 19% 30.26 in 10.0 mi ESE 10.4 mph - N/A   Clear
4:15 PM 51.8 °F - 10.4 °F 19% 30.26 in 10.0 mi SE 8.1 mph - N/A   Clear
4:35 PM 51.8 °F - 10.4 °F 19% 30.25 in 10.0 mi SE 6.9 mph - N/A   Clear
4:55 PM 53.6 °F - 10.4 °F 18% 30.25 in 10.0 mi ESE 10.4 mph - N/A   Clear
5:15 PM 53.6 °F - 10.4 °F 18% 30.25 in 10.0 mi SE 11.5 mph - N/A   Clear
5:35 PM 53.6 °F - 10.4 °F 18% 30.24 in 10.0 mi SE 10.4 mph - N/A   Clear
5:55 PM 53.6 °F - 10.4 °F 18% 30.24 in 10.0 mi ESE 12.7 mph - N/A   Clear
6:15 PM 53.6 °F - 10.4 °F 18% 30.24 in 10.0 mi ESE 9.2 mph - N/A   Clear
6:35 PM 53.6 °F - 10.4 °F 18% 30.24 in 10.0 mi SE 9.2 mph - N/A   Clear
6:55 PM 53.6 °F - 10.4 °F 18% 30.23 in 10.0 mi SE 8.1 mph - N/A   Clear
7:15 PM 53.6 °F - 10.4 °F 18% 30.23 in 10.0 mi SE 9.2 mph - N/A   Clear
7:35 PM 53.6 °F - 10.4 °F 18% 30.23 in 10.0 mi SE 8.1 mph - N/A   Clear
7:55 PM 51.8 °F - 10.4 °F 19% 30.23 in 10.0 mi SE 9.2 mph - N/A   Clear
8:15 PM 51.8 °F - 8.6 °F 18% 30.23 in 10.0 mi SSE 6.9 mph - N/A   Clear
8:35 PM 50.0 °F - 10.4 °F 20% 30.24 in 10.0 mi SE 6.9 mph - N/A   Clear
8:55 PM 48.2 °F - 10.4 °F 22% 30.24 in 10.0 mi SE 6.9 mph - N/A   Clear
9:35 PM 46.4 °F 41.9 °F 10.4 °F 23% 30.25 in 10.0 mi SSE 9.2 mph - N/A   Clear
9:55 PM 46.4 °F 42.4 °F 10.4 °F 23% 30.25 in 10.0 mi SSE 8.1 mph - N/A   Clear
10:15 PM 44.6 °F - 10.4 °F 25% 30.26 in 10.0 mi Calm Calm - N/A   Clear
10:35 PM 44.6 °F - 12.2 °F 27% 30.26 in 10.0 mi Calm Calm - N/A   Clear
10:55 PM 46.4 °F - 10.4 °F 23% 30.26 in 10.0 mi Calm Calm - N/A   Clear
11:15 PM 44.6 °F - 10.4 °F 25% 30.26 in 10.0 mi Calm Calm - N/A   Clear
11:35 PM 44.6 °F 42.2 °F 10.4 °F 25% 30.26 in 10.0 mi NE 4.6 mph - N/A   Clear
11:55 PM 42.8 °F 40.1 °F 10.4 °F 27% 30.26 in 10.0 mi NNE 4.6 mph - N/A   Clear